Lexington Weather

Lexington, Massachusetts, USA

72°F
8/7/2020 11:00am 
  • Lexington Conditions: Clear
  • Temperature: 71.8°F / 22.1°CWarmer 2.4°F than last hour.
  • Dew Point: 63.5°FIncreased 2.0°Fsince last hour.
  • Relative Humidity: 75%Decreased 1.0% since last hour.
  • Wind: Calm, 10-min avg: Calm, gust: 2 mph
  • Barometer: 30.14 inFalling 0.02  inHg/hr Falling Slowly
  • Visibility: 10 miles
  • Rain Today: 0.00 in
  •   

Regional Weather Roundup
for Boston / Norton, MA

        
000
ASUS41 KBOX 030904
RWRBOX

REGIONAL WEATHER ROUNDUP
NATIONAL WEATHER SERVICE BOSTON/NORTON MA
500 AM EDT MON AUG 03 2020

NOTE:  "FAIR" INDICATES FEW OR NO CLOUDS BELOW 12,000 FEET WITH NO 
SIGNIFICANT WEATHER AND/OR OBSTRUCTIONS TO VISIBILITY.

MAZALL-031000-
EASTERN MASSACHUSETTS
  
CITY           SKY/WX    TMP DP  RH WIND       PRES   REMARKS
BOSTON         PTCLDY    76  73  91 S8        29.88R                  
BEVERLY        CLEAR     78  75  90 S9        29.86R                  
LAWRENCE       CLEAR     76  74  93 SW5       29.88R                  
BEDFORD        CLEAR     77  74  90 SW9       29.86R                  
BLUE HILL      NOT AVBL                                               
NORWOOD        CLEAR     80  74  81 SW7       29.89R                  
MARSHFIELD     PTCLDY    79  77  94 VRB7      29.89R                  
PLYMOUTH       CLEAR     77  75  93 S10G18    29.92R                  
TAUNTON        CLEAR     79  75  87 S7        29.91R                  
NEW BEDFORD    CLOUDY   N/A N/A N/A SW12G20   29.91R                  
$$

MAZALL-031000-
CAPE COD AND THE ISLANDS
  
CITY           SKY/WX    TMP DP  RH WIND       PRES   REMARKS
FALMOUTH       CLOUDY    79  77  94 SW17G25   29.93                   
HYANNIS        CLOUDY    79  76  90 SW15      29.92R                  
CHATHAM        CLOUDY    77  75  93 SW7       29.95R                  
PROVINCETOWN   CLEAR     76  75  97 SW16      29.92R                  
NANTUCKET      CLOUDY    73  71  93 S13       29.96R FOG              
MARTHAS VNYRD  CLOUDY    76  75  97 SW8G18    29.94R FOG              
$$
 
MAZALL-031000-
CENTRAL AND WESTERN MASSACHUSETTS
  
CITY           SKY/WX    TMP DP  RH WIND       PRES   REMARKS
WORCESTER      PTCLDY    75  72  90 SW10      29.92R                  
FITCHBURG      CLEAR     76  72  87 S7        29.88R                  
ORANGE         CLEAR     75  73  93 S10       29.89R                  
SPRINGFIELD    CLEAR     76  74  95 S5        29.87R                  
WESTFIELD      CLEAR     74  73  97 S7        29.88R                  
NORTH ADAMS    CLEAR     70  66  87 W8        29.88R                  
PITTSFIELD     PTCLDY    71  67  87 W7        29.91R                  
$$
 
RIZALL-031000-
RHODE ISLAND
  
CITY           SKY/WX    TMP DP  RH WIND       PRES   REMARKS
PROVIDENCE     CLEAR     78  75  90 SW8       29.91R                  
NEWPORT        CLOUDY    77  75  93 SW8       29.93R FOG              
BLOCK ISLAND   PTCLDY    74  73  97 SW17      29.94R                  
SMITHFIELD     CLEAR     76  75  97 SW7       29.93R                  
WESTERLY       CLEAR     76  72  87 SW10      29.93R                  
$$
 
CTZALL-031000-
CONNECTICUT
  
CITY           SKY/WX    TMP DP  RH WIND       PRES   REMARKS
BRADLEY INTL   PTCLDY    76  74  93 S10       29.88R                  
HARTFORD       CLEAR     79  74  84 S8        29.89R                  
BRIDGEPORT     PTCLDY    78  74  87 SW6       29.92R                  
DANBURY        CLEAR     75  64  68 SW5       29.95R                  
GROTON         CLEAR     78  74  87 SW8       29.92R                  
NEW HAVEN      PTCLDY    80  75  84 SW6       29.92R                  
CHESTER        NOT AVBL                                               
MERIDEN        CLEAR     76  73  91 S3        29.91R                  
WILLIMANTIC    CLEAR     77  74  90 SW5       29.91R                  
OXFORD         MOCLDY    74  74 100 SW5       29.95R FOG              
$$

MEZ002-015-021-024-NHZ003-005-008-011-012-014-VTZ005-008-031000-
NORTHERN NEW ENGLAND
  
CITY           SKY/WX    TMP DP  RH WIND       PRES   REMARKS
PORTLAND ME    CLOUDY    75  71  87 S5        29.84S                  
BANGOR ME      FOG       70  68  93 S14       29.85S VSB 1/2          
CONCORD NH     PTCLDY    75  73  93 SE7       29.84S                  
MANCHESTER NH  PTCLDY    77  75  93 S8        29.84R                  
NASHUA NH      CLEAR     75  75 100 CALM      29.86S                  
PORTSMOUTH NH  PTCLDY    75  73  95 S5        29.83S                  
JAFFREY NH     MOCLDY    75  71  87 S9        29.90R                  
KEENE NH       CLEAR     72  72 100 S5        29.86S FOG              
BURLINGTON VT  CLEAR     76  67  73 S10G20    29.74R                  
MT. WASHINGTON NOT AVBL                                               
$$

NYZ052-076-031000-
EASTERN NEW YORK
  
CITY           SKY/WX    TMP DP  RH WIND       PRES   REMARKS
ALBANY         PTCLDY    68  64  87 W10       29.88R                  
NEW YORK CITY  MOCLDY    84  62  47 W9        29.93R                  
$$
 
ANZALL-031000-
MARINE OBSERVATIONS
  
STATION/POSITION TIME  TEMP    WIND        PRES    VSBY  WAVE
                       AIR SEA DIR/SP/G                  HT/PER
                 (UTC) (F)     (DEG/KT/KT) (MB)    (MI)  (FT/S)
BOSTON BUOY      0850   71 69  180/  8/ 10 1010.7R         2/ 4
BUZZARDS BAY     0800          220/ 19/ 21 1013.6R
NANTUCKET SOUND  0850      76  210/ 17/ 21   N/A           2/ 3
MASS BAY-STELLWA NOT AVBL
ISLE OF SHOALS   0800   73     200/ 15/ 16 1010.1F
S OF BLOCK IS    0826      72                N/A           6/ 6
$$

......................KEY.........................
  SKY/WX - SKY CONDITION/PRESENT WEATHER
  TMP    - TEMPERATURE IN FAHRENHEIT
  DWPT   - DEWPOINT IN FAHRENHEIT
  RH     - RELATIVE HUMIDITY IN PERCENT
  WIND   - DIRECTION AND SPEED IN MPH
  PRES   - MEAN SEA LEVEL PRESSURE IN INCHES OF HG
  WCI    - WIND CHILL INDEX
  VSB    - VISIBILITY IN MILES
  HX     - HEAT INDEX
  TC     - TEMPERATURE IN CELSIUS
  VRB    - VARIABLE WIND DIRECTION
  N/A    - NOT AVAILABLE
  
      

Other recent Regional Weather Roundups

Fri Aug 7, 10:04am

Fri Aug 7, 9:04am

Fri Aug 7, 8:04am

Fri Aug 7, 7:04am

Fri Aug 7, 6:04am

Fri Aug 7, 5:04am

Fri Aug 7, 4:04am

Fri Aug 7, 3:04am

Fri Aug 7, 2:04am

Fri Aug 7, 1:05am

Fri Aug 7, 12:04am

Thu Aug 6, 11:04pm

Thu Aug 6, 10:04pm

Thu Aug 6, 9:04pm

Thu Aug 6, 8:04pm

Thu Aug 6, 7:04pm

Thu Aug 6, 6:04pm

Thu Aug 6, 5:04pm

Thu Aug 6, 4:05pm

Thu Aug 6, 3:04pm

Thu Aug 6, 2:05pm

Thu Aug 6, 1:04pm

Thu Aug 6, 12:04pm

Thu Aug 6, 11:04am

Thu Aug 6, 10:04am

Thu Aug 6, 9:04am

Thu Aug 6, 8:04am

Thu Aug 6, 7:04am

Thu Aug 6, 6:04am

Thu Aug 6, 5:04am

Thu Aug 6, 4:04am

Thu Aug 6, 3:04am

Thu Aug 6, 2:05am

Thu Aug 6, 1:04am

Thu Aug 6, 12:04am

Wed Aug 5, 11:04pm

Wed Aug 5, 10:04pm

Wed Aug 5, 9:04pm

Wed Aug 5, 8:05pm

Wed Aug 5, 7:04pm

Wed Aug 5, 6:04pm

Wed Aug 5, 5:04pm

Wed Aug 5, 4:05pm

Wed Aug 5, 3:04pm

Wed Aug 5, 2:04pm

Wed Aug 5, 1:04pm

Wed Aug 5, 12:04pm

Wed Aug 5, 11:04am

Wed Aug 5, 10:04am

Wed Aug 5, 9:04am

Wed Aug 5, 8:04am

Wed Aug 5, 7:04am

Wed Aug 5, 6:04am

Wed Aug 5, 5:04am

Wed Aug 5, 4:04am

Wed Aug 5, 3:04am

Wed Aug 5, 2:05am

Wed Aug 5, 1:04am

Wed Aug 5, 12:05am

Tue Aug 4, 11:05pm

Tue Aug 4, 10:05pm

Tue Aug 4, 9:04pm

Tue Aug 4, 8:04pm

Tue Aug 4, 7:05pm

Tue Aug 4, 6:05pm

Tue Aug 4, 5:05pm

Tue Aug 4, 4:05pm

Tue Aug 4, 3:04pm

Tue Aug 4, 2:05pm

Tue Aug 4, 1:04pm

Tue Aug 4, 12:05pm

Tue Aug 4, 11:04am

Tue Aug 4, 10:04am

Tue Aug 4, 9:04am

Tue Aug 4, 8:04am

Tue Aug 4, 7:04am

Tue Aug 4, 6:04am

Tue Aug 4, 5:04am

Tue Aug 4, 4:04am

Tue Aug 4, 3:04am

Tue Aug 4, 2:04am

Tue Aug 4, 1:04am

Tue Aug 4, 12:04am

Mon Aug 3, 11:04pm

Mon Aug 3, 10:04pm

Mon Aug 3, 9:04pm

Mon Aug 3, 8:05pm

Mon Aug 3, 7:04pm

Mon Aug 3, 6:04pm

Mon Aug 3, 5:04pm

Mon Aug 3, 4:05pm

Mon Aug 3, 3:04pm

Mon Aug 3, 2:04pm

Mon Aug 3, 1:04pm

Mon Aug 3, 12:05pm

Mon Aug 3, 11:04am

Mon Aug 3, 10:04am

Mon Aug 3, 9:05am

Mon Aug 3, 8:04am

Mon Aug 3, 7:04am

Mon Aug 3, 6:04am

Mon Aug 3, 4:04am

Mon Aug 3, 3:04am

Mon Aug 3, 2:04am

Mon Aug 3, 1:04am

Mon Aug 3, 12:05am

Sun Aug 2, 11:04pm

Sun Aug 2, 10:04pm

Sun Aug 2, 9:04pm

Sun Aug 2, 8:04pm

Sun Aug 2, 7:04pm

Sun Aug 2, 6:04pm

Sun Aug 2, 5:04pm

Sun Aug 2, 4:05pm

Sun Aug 2, 3:04pm

Sun Aug 2, 2:05pm

Sun Aug 2, 1:04pm

Sun Aug 2, 12:04pm

Sun Aug 2, 11:04am

Sun Aug 2, 10:04am

Sun Aug 2, 9:05am

Sun Aug 2, 8:05am

Sun Aug 2, 7:04am

Sun Aug 2, 6:04am

Sun Aug 2, 5:04am

Sun Aug 2, 4:05am

Sun Aug 2, 3:04am

Sun Aug 2, 2:04am

Sun Aug 2, 1:04am

Sun Aug 2, 12:05am

Sat Aug 1, 11:04pm

Sat Aug 1, 10:04pm

Sat Aug 1, 9:04pm

Sat Aug 1, 8:05pm

Sat Aug 1, 7:04pm

Sat Aug 1, 6:04pm

Sat Aug 1, 5:05pm

Sat Aug 1, 4:05pm

Sat Aug 1, 3:04pm

Sat Aug 1, 2:04pm

Sat Aug 1, 1:04pm

Sat Aug 1, 12:04pm

Sat Aug 1, 11:05am

Sat Aug 1, 10:05am

Sat Aug 1, 9:04am

Sat Aug 1, 8:04am

Sat Aug 1, 7:04am

Sat Aug 1, 6:04am

Sat Aug 1, 5:04am

Sat Aug 1, 4:05am

Sat Aug 1, 3:04am

Sat Aug 1, 2:04am

Sat Aug 1, 1:04am

Sat Aug 1, 12:05am

Fri Jul 31, 11:05pm

Fri Jul 31, 10:04pm

Fri Jul 31, 9:04pm

Fri Jul 31, 8:05pm

Fri Jul 31, 7:05pm

Fri Jul 31, 6:04pm

Fri Jul 31, 5:04pm

Fri Jul 31, 4:05pm

Fri Jul 31, 3:04pm

Fri Jul 31, 2:05pm

Fri Jul 31, 1:04pm

Fri Jul 31, 12:04pm

Fri Jul 31, 11:04am

Meta data:

ID: cb1944e7-5983-4daf-951f-fe54388c14f2
Link: https://api.weather.gov/products/cb1944e7-5983-4daf-951f-fe54388c14f2